DMSP 5D-2 F13 DEB, 42327

Orbit data source: Space-Track

DMSP 5D-2 F13 DEB, 42327 is space debris in SSO originally from a launch on Fri, 24 Mar 1995 UTC launched from the Air Force Western Test Range (AFWTR). Debris objects in space refer to the collection of defunct objects orbiting the Earth. Examples of debris include non-operational satellites, rocket bodies, and fragments generated from explosions, collisions, or faulty payload assembly.

Loading next visibility...
Identifier
42327, 1995-015JV
Orbit
SSO
Country
Flag of USUS
Related business
Manufacturer
Unknown
Mission
Spacecraft
Bus & Motor
Unknown
Mass
Unknown
Launch date (UTC)
1995-03-24 (31 years ago)
Launch vehicle
Unknown
Launch site
Air Force Western Test Range (AFWTR)
Object type
Payload
Rocket body
Debris
Shape & HBR
Unknown shape, 0.1 m
Radar Cross Section
Medium (>0.1 m² and <1 m²)

Expand to show TLE details & history
Last TLE update: 6 days ago

TLE from 6 days ago
0 DMSP 5D-2 F13 DEB
1 42327U 95015JV  26247.91721308  .00001946  00000-0  61563-3 0  9994
2 42327  98.6722 289.1216 0007139 123.0352 237.1523 14.41307557565195
Epoch: 2026-09-04T22:00Z
TLE epoch observation values (Epoch: 2026-09-04T22:00:47.210Z)
Latitude
-0°
Longitude
-25.10927°
Altitude
759.891 km
Speed
7.473 km/s
True Right ascension
19h 16m 29s
True Declination
0° 00' 00"
Sunlit
Object was in full shadow at epoch
Visualization orbit readout
Latitude
Unknown
Longitude
Unknown
Altitude
Unknown
Speed
Unknown
Apparent Right ascension
Unknown
Apparent Declination
Unknown
Sunlit
N/A
Visualization observer readout
Local Sidereal Time
00:02:24
Azimuth
Unknown
Elevation
Unknown
Doppler factor
Unknown
Orbital elements
Apogee altitude
756.4 km
Perigee altitude
746.22 km
Semi-major axis
7,129.447 km
Eccentricity
0.00071
Inclination
98.6722°
RAAN
289.1216°
Arg. of periapsis
123.0352°
True anomaly
237.08361°
Mean anomaly
237.1523°
Eccentric anomaly
237.11795°
Mean motion
3.60545 °/min
Orbital period
99.85 mins
BSTAR
0.00061563
Loading maneuver chart data...
Computing Atmospheric mass density...

Documentation

Showing up to 5 results
|